{"data":{"norad_id":69565,"epoch":"2026-09-19T01:33:01.617984Z","epoch_age_seconds":145701,"freshness":"FRESH","line1":"1 69565U 26135V   26262.06460206  .00006305  00000+0  19747-3 0  9994","line2":"2 69565  97.2830 289.8238 0001703  95.2824 264.8613 15.33444522 14786","mean_motion":15.33444522,"eccentricity":0.0001703,"inclination_deg":97.283,"raan_deg":289.8238,"arg_perigee_deg":95.2824,"mean_anomaly_deg":264.8613,"bstar":0.00019747,"rev_number":1478,"period_min":93.906233928951,"perigee_km":464.37911769429,"apogee_km":466.71007564611,"semimajor_km":6843.6815966702,"source":"CELESTRAK","updated_at":"2026-09-20T09:00:44.245693Z"}}